Hagerstown, MD

2:29 AM EDT on April 23, 2018 (GMT -0400)
Hagerstown Regional-Henson

Weather History for KHGR - September, 2014

Change the Weather History Date:

Wednesday, September 24, 2014

  Actual Average Record
Temperature  
Mean Temperature 57 °F 62 °F  
Max Temperature 67 °F 72 °F 95 °F (2010)
Min Temperature 47 °F 53 °F 42 °F (2013)
Degree Days  
Heating Degree Days 8 4  
Month to date heating degree days 52 38  
Since 1 July heating degree days 54 43  
Cooling Degree Days 0 1  
Month to date cooling degree days 112 85  
Year to date cooling degree days 925 953  
Growing Degree Days 7 (Base 50)    
Moisture  
Dew Point 50 °F    
Average Humidity 69    
Maximum Humidity 86    
Minimum Humidity 52    
Precipitation  
Precipitation 0.00 in 0.14 in 0.59 in (2001)
Month to date precipitation 1.29 2.83  
Year to date precipitation 28.20 29.46  
Sea Level Pressure  
Sea Level Pressure 30.48 in    
Wind  
Wind Speed 5 mph (NE)    
Max Wind Speed 14 mph    
Max Gust Speed 18 mph    
Visibility 10 miles    
Events Rain    
T = Trace of Precipitation, MM = Missing Value Source: NWS Daily Summary

Daily Weather History Graph

Daily Weather History Graph

Search for Another Location

Airport or City:

Astronomy

Sep. 24, 2014 Rise Set
Actual Time 7:00 AM EDT 7:04 PM EDT
Civil Twilight 6:33 AM EDT 7:31 PM EDT
Nautical Twilight 6:02 AM EDT 8:02 PM EDT
Astronomical Twilight 5:30 AM EDT 8:34 PM EDT
Moon 7:19 AM EDT (9/24) 7:14 PM EDT (9/24)
Length of Visible Light 12h 58m
Length of Day
12h 04m
New Moon, 0% of the Moon is Illuminated
Sep 24
New Moon
Oct 1
First Quarter
Oct 8
Full
Oct 15
Last Quarter
Oct 23
New

Hourly Weather History & Observations

Time (EDT) Temp. Dew Point Humidity Pressure Visibility Wind Dir Wind Speed Gust Speed Precip Events Conditions
12:53 AM 53.1 °F 46.9 °F 80% 30.43 in 10.0 mi Calm Calm - N/A   Clear
1:53 AM 54.0 °F 46.9 °F 77% 30.45 in 10.0 mi Calm Calm - N/A   Clear
2:53 AM 52.0 °F 46.9 °F 83% 30.45 in 10.0 mi Calm Calm - N/A   Clear
3:53 AM 50.0 °F 46.0 °F 86% 30.44 in 10.0 mi NW 3.5 mph - N/A   Clear
4:53 AM 50.0 °F 46.0 °F 86% 30.45 in 10.0 mi NNW 3.5 mph - N/A   Clear
5:53 AM 48.0 °F 45.0 °F 89% 30.45 in 10.0 mi NNW 3.5 mph - N/A   Clear
6:53 AM 48.9 °F 44.1 °F 83% 30.48 in 10.0 mi Calm Calm - N/A   Clear
7:53 AM 48.0 °F 44.1 °F 86% 30.50 in 10.0 mi NNW 3.5 mph - N/A   Clear
8:53 AM 53.1 °F 46.9 °F 80% 30.52 in 10.0 mi NW 4.6 mph - N/A   Clear
9:53 AM 63.0 °F 48.0 °F 58% 30.53 in 10.0 mi NE 8.1 mph - N/A   Clear
10:53 AM 64.0 °F 46.9 °F 54% 30.53 in 10.0 mi East 9.2 mph - N/A   Clear
11:53 AM 64.0 °F 48.0 °F 56% 30.53 in 10.0 mi East 9.2 mph - N/A   Clear
12:53 PM 64.0 °F 50.0 °F 60% 30.53 in 10.0 mi ENE 10.4 mph - N/A   Clear
1:53 PM 66.0 °F 52.0 °F 60% 30.52 in 10.0 mi East 9.2 mph - N/A   Clear
2:53 PM 66.9 °F 53.1 °F 61% 30.50 in 10.0 mi ENE 11.5 mph - N/A   Clear
3:53 PM 66.9 °F 53.1 °F 61% 30.49 in 10.0 mi ENE 9.2 mph - N/A   Clear
4:53 PM 66.9 °F 53.1 °F 61% 30.48 in 10.0 mi ENE 6.9 mph - N/A   Clear
5:53 PM 66.9 °F 54.0 °F 63% 30.48 in 10.0 mi NNE 5.8 mph - N/A   Overcast
6:53 PM 64.9 °F 54.0 °F 68% 30.48 in 10.0 mi NNE 4.6 mph - N/A   Mostly Cloudy
7:53 PM 64.0 °F 54.0 °F 70% 30.48 in 10.0 mi NE 4.6 mph - N/A   Scattered Clouds
8:53 PM 63.0 °F 54.0 °F 72% 30.48 in 10.0 mi ENE 4.6 mph - N/A   Clear
9:53 PM 64.0 °F 53.1 °F 67% 30.47 in 10.0 mi East 6.9 mph - N/A   Partly Cloudy
10:53 PM 62.1 °F 54.0 °F 75% 30.46 in 10.0 mi NE 5.8 mph - 0.00 in Rain Light Rain
11:53 PM 61.0 °F 55.9 °F 83% 30.45 in 9.0 mi ENE 6.9 mph - 0.02 in Rain Light Rain